Weather History for Scottsbluff, NE

Change the Weather History Date:

Monday, January 19, 1998

  Actual Average Record
Temperature  
Mean Temperature 34 °F 28 °F  
Max Temperature 43 °F 41 °F 66 °F (1920)
Min Temperature 24 °F 14 °F -32 °F (1963)
Degree Days  
Heating Degree Days 32 37  
Month to date heating degree days 726  
Since 1 July heating degree days 3498  
Cooling Degree Days 0 0  
Month to date cooling degree days 0  
Year to date cooling degree days 0  
Moisture  
Dew Point 26 °F    
Average Humidity 85    
Maximum Humidity 100    
Minimum Humidity 56    
Precipitation  
Precipitation 0.00 in 0.01 in 0.48 in (1990)
Month to date precipitation 0.25  
Year to date precipitation 0.25  
Sea Level Pressure  
Sea Level Pressure 29.68 in    
Wind  
Wind Speed 11 mph (ESE)    
Max Wind Speed 21 mph    
Max Gust Speed -    
Visibility 7 miles    
Events      
T = Trace of Precipitation, MM = Missing Value Source: NWS Daily Summary

Daily Weather History Graph

Daily Weather History Graph

Search for Another Location

Airport:

Trip Planner

Search our weather history database for the weather conditions in past years. The results will help you decide how hot, cold, wet, or windy it might be!

Date:

Astronomy

Jan. 19, 1998 Rise Set
Actual Time 7:17 AM MST 4:53 PM MST
Civil Twilight 6:47 AM MST 5:23 PM MST
Nautical Twilight 6:12 AM MST 5:57 PM MST
Astronomical Twilight 5:39 AM MST 6:31 PM MST
Moon 11:53 PM MST (1/19) 10:53 AM MST (1/19)
Length of Visible Light 10h 36m
Length of Day
9h 35m
Waning Gibbous, 60% of the Moon is Illuminated
Jan 19
Waning Gibbous
Jan 20
Last Quarter
Jan 27
New
Feb 3
First Quarter
Feb 11
Full

Hourly Weather History & Observations

Time (MST) Temp. Windchill Dew Point Humidity Pressure Visibility Wind Dir Wind Speed Gust Speed Precip Events Conditions
12:54 AM 25.0 °F 17.1 °F 21.0 °F 85% 29.98 in 10.0 mi East 6.9 mph - N/A   Clear
1:54 AM 24.1 °F 15.2 °F 21.0 °F 88% 29.96 in 10.0 mi East 8.1 mph - N/A   Clear
2:54 AM 25.0 °F 16.3 °F 21.0 °F 85% 29.92 in 10.0 mi East 8.1 mph - N/A   Clear
3:54 AM 24.1 °F 15.2 °F 19.9 °F 84% 29.90 in 10.0 mi East 8.1 mph - N/A   Clear
4:54 AM 26.1 °F 16.2 °F 21.9 °F 84% 29.86 in 10.0 mi ESE 10.4 mph - N/A   Clear
5:54 AM 25.0 °F 15.5 °F 21.9 °F 88% 29.87 in 10.0 mi East 9.2 mph - N/A   Clear
6:54 AM 25.0 °F 14.8 °F 21.9 °F 88% 29.84 in 10.0 mi East 10.4 mph - N/A   Clear
7:54 AM 24.1 °F 15.2 °F 21.0 °F 88% 29.84 in 10.0 mi East 8.1 mph - N/A   Clear
8:54 AM 28.0 °F 18.1 °F 24.1 °F 85% 29.81 in 10.0 mi ESE 11.5 mph - N/A   Clear
9:54 AM 32.0 °F 21.2 °F 26.1 °F 79% 29.78 in 10.0 mi ESE 16.1 mph - N/A   Clear
10:54 AM 36.0 °F 26.7 °F 27.0 °F 70% 29.72 in 10.0 mi East 15.0 mph - N/A   Clear
11:54 AM 41.0 °F 33.5 °F 27.0 °F 57% 29.66 in 10.0 mi ESE 13.8 mph - N/A   Partly Cloudy
12:54 PM 43.0 °F 35.4 °F 28.0 °F 56% 29.60 in 10.0 mi ESE 16.1 mph - N/A   Clear
1:54 PM 39.9 °F 31.1 °F 28.9 °F 65% 29.57 in 10.0 mi ESE 17.3 mph - N/A   Partly Cloudy
2:54 PM 41.0 °F 31.6 °F 28.9 °F 62% 29.56 in 10.0 mi ESE 20.7 mph - N/A   Partly Cloudy
3:54 PM 37.9 °F 28.5 °F 28.9 °F 70% 29.59 in 10.0 mi ESE 17.3 mph - N/A   Partly Cloudy
4:54 PM 34.0 °F 24.6 °F 27.0 °F 75% 29.59 in 10.0 mi ESE 13.8 mph - N/A   Clear
5:54 PM 30.9 °F 21.2 °F 27.0 °F 85% 29.60 in 10.0 mi ESE 12.7 mph - N/A   Clear
6:45 PM 28.4 °F 16.6 °F 26.6 °F 93% 29.53 in 5.0 mi ESE 16.1 mph - N/A   Scattered Clouds
6:54 PM 28.0 °F 15.3 °F 28.0 °F 100% 29.62 in 2.0 mi ESE 18.4 mph - N/A   Overcast
7:01 PM 28.4 °F 16.6 °F 28.4 °F 100% 29.53 in 1.0 mi ESE 16.1 mph - N/A   Overcast
7:04 PM 28.4 °F 16.6 °F 28.4 °F 100% 29.53 in 1.2 mi ESE 16.1 mph - N/A   Overcast
7:18 PM 28.4 °F 16.2 °F 28.4 °F 100% 29.53 in 2.5 mi ESE 17.3 mph - N/A   Overcast
7:54 PM 28.9 °F 17.7 °F 28.9 °F 100% 29.61 in 2.5 mi ESE 15.0 mph - N/A   Overcast
8:54 PM 30.0 °F 20.0 °F 28.9 °F 96% 29.59 in 2.5 mi SE 12.7 mph - N/A   Overcast
9:10 PM 30.2 °F 20.2 °F 28.4 °F 93% 29.53 in 3.0 mi ESE 12.7 mph - N/A   Overcast
9:54 PM 30.0 °F 21.7 °F 28.9 °F 96% 29.58 in 4.0 mi ESE 9.2 mph - N/A   Overcast
10:54 PM 30.0 °F 21.7 °F 28.9 °F 96% 29.58 in 4.0 mi SE 9.2 mph - N/A   Overcast
11:54 PM 30.0 °F 21.1 °F 28.0 °F 92% 29.55 in 5.0 mi SSE 10.4 mph - N/A   Overcast